GFSNE_sfc_vis_018.txt.gz
Visibility
14.8 15.0 15.0 15.0 14.8 14.9 14.5 14.8 15.0 13.8 15.0 15.0 15.0 15.0 15.0 15.0 15.0 15.0 15.0 15.0 15.0 15.0 15.0 15.0 15.0 15.0 15.0 15.0 15.0 15.0 15.0 15.0 15.0 15.0 15.0 15.0 15.0 15.0
6.7 4.1 8.7 9.4 15.0 15.0 10.6 13.4 10.2 11.3 15.0 15.0 15.0 15.0 15.0 15.0 15.0 15.0 15.0 15.0 15.0 15.0 15.0 15.0 15.0 15.0 15.0 15.0 15.0 15.0 15.0 15.0 15.0 15.0 15.0 15.0 15.0 15.0
15.0 15.0 15.0 15.0 15.0 15.0 15.0 15.0 15.0 15.0 15.0 15.0 15.0 15.0 15.0 15.0 15.0 15.0 15.0 15.0 15.0 15.0 15.0 15.0 15.0 15.0 15.0 15.0 15.0 15.0 15.0 15.0 15.0 15.0 15.0 15.0 15.0 15.0
15.0 15.0 15.0 15.0 15.0 15.0 15.0 15.0 15.0 15.0 15.0 15.0 15.0 15.0 15.0 15.0 15.0 15.0 15.0 15.0 15.0 15.0 15.0 15.0 15.0 15.0 15.0 15.0 15.0 15.0 15.0 15.0 14.6 15.0 15.0 15.0 15.0 15.0
15.0 15.0 15.0 15.0 15.0 15.0 15.0 15.0 15.0 15.0 15.0 15.0 15.0 15.0 15.0 15.0 15.0 15.0 15.0 15.0 15.0 15.0 15.0 15.0 15.0 15.0 15.0 15.0 15.0 15.0 15.0 15.0 15.0 15.0 15.0 15.0 15.0 15.0
15.0 15.0 15.0 15.0 15.0 15.0 15.0 15.0 15.0 15.0 15.0 15.0 15.0 15.0 15.0 15.0 15.0 15.0 15.0 15.0 15.0 15.0 15.0 15.0 15.0 15.0 15.0 15.0 15.0 15.0 15.0 15.0 15.0 15.0 15.0 15.0 15.0 15.0
15.0 15.0 15.0 15.0 15.0 15.0 15.0 15.0 15.0 15.0 15.0 15.0 15.0 15.0 15.0 15.0 15.0 15.0 15.0 15.0 15.0 15.0 15.0 15.0 15.0 15.0 15.0 15.0 15.0 15.0 15.0 15.0 15.0 15.0 15.0 15.0 15.0 15.0
15.0 15.0 15.0 15.0 15.0 15.0 15.0 15.0 15.0 13.8 13.7 12.9 9.0 10.2 15.0 15.0 15.0 9.6 4.9 6.5 8.6 15.0 14.9 15.0 15.0 15.0 15.0 15.0 15.0 15.0 15.0 15.0 15.0 15.0 15.0 15.0 15.0 15.0
15.0 15.0 15.0 15.0 15.0 15.0 15.0 15.0 15.0 15.0 15.0 11.1 6.9 8.1 11.7 11.0 12.3 4.9 4.6 12.1 13.9 15.0 14.3 4.1 15.0 7.2 15.0 15.0 15.0 15.0 15.0 15.0 15.0 15.0 15.0 15.0 15.0 15.0
15.0 15.0 15.0 15.0 15.0 11.1 11.7 7.9 6.2 7.1 4.6 5.7 6.6 12.4 15.0 15.0 10.4 10.1 4.0 3.4 6.8 11.8 8.6 1.8 15.0 10.7 15.0 15.0 15.0 15.0 15.0 15.0 15.0 15.0 15.0 15.0 15.0 15.0
15.0 15.0 14.8 7.8 14.2 12.8 2.8 2.4 3.0 6.3 15.0 14.6 15.0 14.4 15.0 13.2 14.5 8.0 1.0 1.4 1.3 10.3 15.0 5.9 7.4 15.0 15.0 15.0 15.0 15.0 15.0 15.0 15.0 15.0 15.0 15.0 15.0 15.0
5.9 7.2 15.0 5.8 14.2 13.7 0.2 1.4 1.8 6.0 5.1 5.6 6.9 8.0 4.9 13.3 15.0 11.4 1.8 0.3 1.9 2.4 13.0 2.9 2.9 9.1 2.3 15.0 15.0 15.0 15.0 15.0 15.0 15.0 15.0 15.0 15.0 15.0
4.5 5.9 4.2 0.9 0.3 11.0 8.2 8.8 4.0 5.4 13.7 6.1 4.7 8.8 9.2 3.9 4.1 2.7 2.1 1.6 1.7 2.8 15.0 4.3 1.6 11.4 3.0 2.5 6.8 9.6 15.0 3.7 13.9 15.0 15.0 15.0 15.0 15.0
2.8 3.2 0.4 8.1 1.1 11.7 15.0 4.9 15.0 14.5 0.8 0.3 0.4 1.6 5.8 6.7 7.8 13.8 3.2 2.6 6.0 6.3 7.5 6.2 4.6 6.7 2.4 2.1 3.0 14.1 1.9 15.0 14.6 13.1 7.9 15.0 15.0 15.0
0.9 3.1 0.5 1.2 3.1 7.8 5.7 15.0 14.3 0.3 0.9 0.9 0.7 4.9 4.3 4.3 4.5 2.8 2.8 1.9 2.6 2.6 5.7 2.9 1.0 2.0 3.9 1.9 1.7 1.5 2.7 1.6 15.0 15.0 15.0 4.4 15.0 15.0
1.7 0.3 0.5 0.4 0.2 0.3 3.4 5.0 5.4 9.3 8.6 4.5 13.9 12.3 15.0 4.4 2.1 3.8 2.3 1.5 1.8 2.3 0.3 0.2 0.1 2.0 2.0 1.4 2.1 2.0 1.3 1.7 1.3 11.4 0.0 1.0 0.9 12.9
0.3 0.3 0.6 0.4 0.5 5.6 7.7 7.1 6.8 11.6 9.7 8.2 4.5 7.5 8.1 9.8 3.6 3.3 9.2 2.1 0.7 1.9 1.3 3.0 0.1 0.1 1.0 2.2 0.5 1.6 1.8 1.5 1.5 0.6 0.0 4.4 5.6 15.0
0.4 0.3 0.2 0.2 0.2 1.3 7.9 7.1 10.2 12.0 12.9 11.4 1.2 9.2 11.8 15.0 5.9 0.5 12.9 8.0 2.1 1.3 2.3 1.2 1.9 0.1 0.0 0.1 0.7 12.3 2.8 1.7 2.0 0.5 15.0 4.7 4.7 5.2
0.4 0.3 0.2 0.2 0.2 0.6 6.9 9.6 5.3 4.4 6.7 11.9 10.6 14.5 14.9 9.2 4.9 1.8 0.3 0.5 1.3 3.6 2.3 1.4 1.8 0.7 0.4 0.4 0.4 15.0 5.5 8.0 0.3 2.0 1.9 13.7 5.5 3.6
0.6 0.3 0.3 0.3 0.4 5.7 11.5 7.8 8.4 7.2 9.0 11.0 5.2 3.0 4.3 14.9 15.0 11.6 1.9 0.3 0.6 5.2 5.4 4.9 1.8 0.9 0.2 0.1 0.1 0.4 15.0 3.8 0.8 1.9 2.5 3.8 2.0 15.0
0.7 0.7 0.4 0.9 8.9 10.5 7.2 7.3 1.5 1.0 2.6 2.2 1.4 2.7 2.9 1.3 14.8 14.7 12.8 0.7 0.7 12.4 15.0 15.0 14.0 11.4 14.2 14.9 2.9 2.4 6.7 15.0 4.8 0.1 2.8 2.6 6.0 5.9
5.7 12.1 14.8 9.4 6.0 7.2 7.5 6.5 9.9 9.9 6.7 7.8 1.3 0.7 1.7 1.1 4.5 15.0 15.0 7.2 5.5 1.7 14.8 15.0 15.0 14.8 15.0 12.0 0.7 2.8 5.6 1.4 5.0 7.1 0.7 0.4 0.2 0.1
15.0 15.0 14.3 9.5 8.6 8.6 9.1 7.9 9.6 8.5 9.3 9.2 2.3 1.4 1.1 0.7 5.8 14.1 10.2 9.2 12.7 4.2 9.6 7.6 14.4 14.8 15.0 14.2 6.3 5.7 3.2 2.6 4.0 0.4 0.4 5.8 15.0 15.0

GFSNE_sfc_vis_021.txt.gz
Visibility
15.0 15.0 15.0 15.0 15.0 15.0 15.0 15.0 11.4 5.5 15.0 15.0 15.0 15.0 15.0 14.6 15.0 15.0 15.0 15.0 15.0 15.0 15.0 15.0 15.0 15.0 15.0 15.0 15.0 15.0 15.0 15.0 15.0 15.0 15.0 15.0 15.0 15.0
10.1 8.2 6.7 7.4 11.9 15.0 15.0 15.0 15.0 15.0 15.0 15.0 15.0 15.0 15.0 15.0 15.0 15.0 15.0 15.0 15.0 15.0 15.0 15.0 15.0 15.0 15.0 15.0 15.0 15.0 15.0 15.0 15.0 15.0 15.0 15.0 15.0 15.0
15.0 15.0 14.1 15.0 15.0 15.0 15.0 15.0 15.0 13.6 7.8 15.0 15.0 15.0 15.0 15.0 15.0 15.0 15.0 15.0 15.0 15.0 15.0 15.0 15.0 15.0 15.0 15.0 15.0 15.0 15.0 15.0 15.0 15.0 15.0 15.0 15.0 15.0
15.0 15.0 15.0 15.0 15.0 15.0 15.0 15.0 15.0 15.0 15.0 15.0 15.0 15.0 15.0 15.0 15.0 15.0 15.0 15.0 15.0 15.0 15.0 15.0 15.0 15.0 15.0 15.0 15.0 15.0 15.0 15.0 15.0 15.0 15.0 15.0 15.0 15.0
15.0 15.0 15.0 15.0 15.0 15.0 15.0 15.0 15.0 15.0 15.0 15.0 15.0 15.0 15.0 15.0 15.0 15.0 15.0 15.0 15.0 15.0 15.0 15.0 15.0 15.0 15.0 15.0 15.0 15.0 15.0 15.0 15.0 15.0 15.0 15.0 15.0 15.0
15.0 15.0 15.0 15.0 15.0 15.0 15.0 15.0 15.0 15.0 15.0 15.0 15.0 15.0 15.0 15.0 15.0 15.0 15.0 15.0 15.0 15.0 15.0 15.0 15.0 15.0 15.0 15.0 15.0 15.0 15.0 15.0 15.0 15.0 15.0 15.0 15.0 15.0
15.0 15.0 15.0 15.0 15.0 15.0 15.0 15.0 15.0 15.0 15.0 15.0 15.0 15.0 15.0 15.0 15.0 15.0 15.0 15.0 15.0 15.0 15.0 15.0 15.0 15.0 15.0 15.0 15.0 15.0 15.0 15.0 15.0 15.0 15.0 15.0 15.0 15.0
15.0 15.0 15.0 15.0 15.0 15.0 15.0 15.0 15.0 15.0 15.0 15.0 15.0 15.0 15.0 15.0 15.0 15.0 15.0 15.0 6.3 15.0 15.0 15.0 15.0 15.0 15.0 15.0 15.0 15.0 15.0 15.0 15.0 15.0 15.0 15.0 15.0 15.0
15.0 15.0 15.0 15.0 15.0 15.0 15.0 15.0 15.0 15.0 15.0 15.0 14.3 15.0 15.0 15.0 15.0 13.6 13.4 15.0 10.9 15.0 15.0 15.0 15.0 15.0 15.0 15.0 15.0 15.0 15.0 15.0 15.0 15.0 15.0 15.0 15.0 15.0
15.0 15.0 15.0 15.0 15.0 15.0 15.0 15.0 13.0 10.1 7.5 10.5 10.1 13.0 15.0 15.0 11.1 13.4 15.0 11.8 15.0 15.0 15.0 1.7 15.0 15.0 15.0 15.0 15.0 15.0 15.0 15.0 15.0 15.0 15.0 15.0 15.0 15.0
15.0 15.0 15.0 15.0 15.0 10.9 3.2 2.6 4.4 15.0 15.0 15.0 15.0 15.0 15.0 15.0 15.0 15.0 12.8 0.2 0.7 14.3 15.0 15.0 15.0 15.0 15.0 15.0 15.0 15.0 15.0 15.0 15.0 15.0 15.0 15.0 15.0 15.0
5.1 15.0 15.0 14.6 14.2 13.9 1.8 0.8 0.4 8.4 12.7 4.5 7.1 15.0 15.0 14.3 15.0 15.0 15.0 4.0 15.0 12.8 15.0 13.3 8.9 15.0 2.8 15.0 15.0 15.0 15.0 15.0 15.0 15.0 15.0 15.0 15.0 15.0
2.9 2.7 15.0 0.1 1.6 5.7 10.4 4.2 2.3 1.2 13.8 12.3 14.4 13.6 12.3 8.3 15.0 15.0 4.4 10.7 2.1 10.6 15.0 4.2 1.7 11.0 8.5 14.9 15.0 11.1 10.3 15.0 15.0 14.4 15.0 15.0 15.0 15.0
2.8 7.5 0.7 7.8 15.0 15.0 6.1 3.1 9.6 15.0 9.1 0.8 0.4 2.6 2.4 3.7 15.0 14.8 13.7 7.5 10.9 6.1 15.0 10.8 0.3 15.0 12.5 1.2 15.0 13.5 15.0 14.0 9.8 15.0 15.0 15.0 15.0 15.0
0.8 1.5 8.9 0.3 2.6 2.1 0.2 11.6 4.8 0.3 0.2 0.9 1.2 2.6 3.2 12.4 14.0 15.0 15.0 15.0 10.3 0.5 1.7 14.9 1.6 0.5 1.4 3.0 5.7 15.0 1.9 7.7 6.3 15.0 15.0 15.0 15.0 14.8
4.9 5.7 0.1 0.3 0.5 0.1 0.3 0.8 1.1 1.2 2.2 0.4 0.7 4.5 3.8 3.0 1.7 2.1 1.3 15.0 1.1 9.1 15.0 15.0 15.0 10.9 4.9 15.0 8.7 15.0 10.8 3.6 9.0 5.3 2.0 0.0 0.1 1.3
0.5 0.2 0.6 0.5 0.3 0.6 0.8 1.1 2.7 5.0 1.3 6.6 3.0 1.3 4.9 7.4 5.4 6.8 14.3 15.0 10.6 3.0 1.8 11.2 15.0 14.4 9.9 15.0 2.0 14.9 15.0 10.7 11.4 3.1 0.4 14.3 6.5 0.1
0.4 0.4 0.2 0.2 0.2 0.2 0.3 0.7 4.7 4.5 6.6 2.8 3.4 0.5 3.1 2.6 6.8 1.7 3.5 15.0 15.0 15.0 10.0 1.6 5.0 0.4 2.5 12.1 14.2 15.0 15.0 9.9 8.7 6.6 0.1 15.0 15.0 13.8
0.4 0.4 0.2 0.2 0.2 0.7 4.1 2.2 1.0 2.1 4.7 5.4 5.0 3.9 1.6 13.3 0.4 1.9 3.9 0.5 0.2 0.7 0.4 0.2 0.0 0.3 0.2 0.5 0.5 4.4 2.6 1.6 0.3 13.6 11.3 0.1 15.0 3.5
2.0 0.4 0.3 0.4 6.9 13.4 10.9 8.9 6.3 4.4 2.2 2.4 2.5 1.2 1.9 1.2 0.9 2.2 5.1 7.9 13.3 6.0 2.8 5.7 1.6 0.8 0.2 0.1 0.1 0.2 4.9 2.5 3.7 2.0 2.6 0.0 13.4 15.0
4.8 1.7 1.7 14.1 9.9 9.5 5.8 5.2 4.4 3.7 3.4 1.2 1.6 1.1 2.0 1.5 2.1 4.6 2.0 6.4 14.5 15.0 12.4 15.0 15.0 15.0 15.0 6.0 0.5 0.3 4.2 15.0 8.6 0.9 0.1 0.1 5.7 15.0
15.0 15.0 15.0 15.0 9.3 9.8 11.0 7.0 12.9 9.6 8.3 6.9 0.8 0.9 1.7 2.3 1.0 3.3 3.4 3.4 6.1 4.9 14.3 14.5 15.0 15.0 11.4 11.6 0.5 12.6 2.3 15.0 15.0 15.0 4.5 0.6 0.2 0.1
15.0 15.0 15.0 15.0 15.0 15.0 15.0 14.9 14.5 13.8 12.1 15.0 12.0 5.6 2.3 1.1 3.4 3.5 3.8 3.9 5.9 5.1 5.3 6.6 7.2 14.8 14.6 15.0 11.3 11.5 15.0 9.1 10.4 0.1 14.6 5.6 0.6 0.5

GFSNE_sfc_vis_024.txt.gz
Visibility
10.1 15.0 15.0 14.9 15.0 15.0 15.0 15.0 15.0 15.0 15.0 15.0 15.0 15.0 15.0 15.0 14.1 9.2 8.8 8.2 15.0 15.0 15.0 15.0 15.0 15.0 15.0 15.0 15.0 15.0 15.0 15.0 15.0 15.0 15.0 15.0 15.0 15.0
14.4 14.8 14.0 12.7 13.2 6.1 11.2 12.6 15.0 15.0 15.0 15.0 15.0 15.0 15.0 15.0 15.0 15.0 15.0 15.0 15.0 15.0 15.0 15.0 15.0 15.0 15.0 15.0 15.0 15.0 15.0 15.0 15.0 15.0 15.0 15.0 15.0 15.0
15.0 15.0 15.0 15.0 15.0 14.7 15.0 15.0 15.0 15.0 15.0 15.0 15.0 15.0 15.0 15.0 15.0 15.0 15.0 15.0 15.0 15.0 15.0 15.0 15.0 15.0 15.0 15.0 15.0 15.0 15.0 15.0 15.0 15.0 15.0 15.0 15.0 15.0
15.0 15.0 15.0 15.0 15.0 15.0 15.0 15.0 15.0 15.0 15.0 15.0 15.0 15.0 15.0 15.0 15.0 15.0 15.0 15.0 15.0 15.0 15.0 15.0 15.0 15.0 15.0 15.0 15.0 15.0 15.0 15.0 15.0 15.0 15.0 15.0 15.0 15.0
15.0 15.0 15.0 15.0 15.0 15.0 15.0 15.0 15.0 15.0 15.0 15.0 15.0 15.0 15.0 15.0 15.0 15.0 15.0 15.0 15.0 15.0 15.0 15.0 15.0 15.0 15.0 15.0 15.0 15.0 15.0 15.0 15.0 15.0 15.0 15.0 15.0 15.0
15.0 15.0 15.0 15.0 15.0 15.0 15.0 15.0 15.0 15.0 15.0 15.0 15.0 15.0 15.0 15.0 15.0 15.0 15.0 15.0 15.0 15.0 15.0 15.0 15.0 15.0 15.0 15.0 15.0 15.0 15.0 15.0 15.0 15.0 15.0 15.0 15.0 15.0
15.0 15.0 15.0 15.0 15.0 15.0 15.0 15.0 15.0 15.0 15.0 15.0 15.0 15.0 15.0 15.0 15.0 15.0 14.2 15.0 15.0 15.0 15.0 15.0 15.0 15.0 15.0 15.0 15.0 15.0 15.0 15.0 15.0 15.0 15.0 15.0 15.0 15.0
15.0 15.0 15.0 15.0 15.0 15.0 15.0 15.0 15.0 15.0 15.0 15.0 15.0 15.0 15.0 15.0 15.0 15.0 15.0 15.0 15.0 15.0 15.0 15.0 15.0 15.0 15.0 15.0 15.0 15.0 15.0 15.0 15.0 15.0 15.0 15.0 15.0 15.0
15.0 15.0 15.0 15.0 15.0 15.0 15.0 15.0 15.0 15.0 15.0 15.0 15.0 15.0 15.0 15.0 15.0 15.0 15.0 15.0 15.0 15.0 15.0 15.0 15.0 15.0 15.0 15.0 15.0 15.0 15.0 15.0 15.0 15.0 15.0 15.0 15.0 15.0
15.0 15.0 15.0 15.0 15.0 15.0 15.0 15.0 15.0 15.0 15.0 15.0 0.9 6.8 4.3 15.0 13.5 6.9 3.6 3.8 6.9 15.0 15.0 15.0 15.0 15.0 15.0 15.0 15.0 15.0 15.0 15.0 15.0 15.0 15.0 15.0 15.0 15.0
15.0 15.0 15.0 15.0 15.0 15.0 14.1 14.6 15.0 15.0 15.0 15.0 4.5 15.0 15.0 15.0 15.0 15.0 3.6 11.0 12.6 15.0 15.0 4.5 5.3 15.0 15.0 15.0 15.0 15.0 15.0 15.0 15.0 15.0 15.0 15.0 15.0 15.0
15.0 15.0 15.0 15.0 0.2 1.8 0.8 0.1 0.1 2.4 15.0 15.0 15.0 15.0 15.0 15.0 15.0 15.0 1.0 0.6 15.0 14.5 15.0 15.0 15.0 15.0 0.6 15.0 15.0 15.0 15.0 15.0 15.0 15.0 15.0 15.0 15.0 15.0
15.0 15.0 15.0 3.2 0.2 0.8 9.6 9.5 10.9 6.9 7.0 15.0 15.0 15.0 15.0 15.0 15.0 15.0 15.0 15.0 0.7 12.5 15.0 14.4 1.4 14.6 7.7 15.0 15.0 15.0 15.0 15.0 15.0 15.0 15.0 15.0 15.0 15.0
1.8 3.3 0.2 13.9 1.0 8.4 3.9 0.6 0.4 8.0 4.3 0.3 0.4 0.2 0.2 0.2 0.0 0.3 2.0 0.4 0.5 0.2 13.1 0.5 0.0 0.1 5.2 15.0 15.0 13.6 15.0 15.0 15.0 15.0 15.0 15.0 15.0 15.0
0.8 0.7 1.0 0.1 0.4 0.7 0.4 0.1 0.1 0.2 0.1 0.2 0.5 0.3 7.4 15.0 15.0 15.0 14.3 13.5 15.0 15.0 15.0 15.0 0.1 15.0 1.0 1.2 2.6 12.4 15.0 12.2 1.0 0.1 15.0 15.0 15.0 15.0
8.9 1.8 0.1 2.3 0.9 0.1 0.2 0.2 0.4 0.2 0.3 0.1 0.6 1.1 0.5 0.5 14.0 15.0 7.2 15.0 15.0 15.0 15.0 15.0 14.4 9.8 2.0 6.1 15.0 15.0 15.0 15.0 15.0 0.3 15.0 15.0 0.5 0.1
3.1 0.1 2.2 1.3 0.2 0.5 0.7 0.7 0.2 1.9 0.7 1.6 0.5 0.6 5.4 15.0 15.0 15.0 0.2 15.0 15.0 15.0 15.0 9.3 8.1 15.0 15.0 13.8 1.5 15.0 15.0 15.0 15.0 3.5 0.0 0.2 15.0 15.0
0.4 0.3 0.3 0.3 0.2 0.1 0.1 0.2 0.8 0.6 2.2 2.2 2.4 9.4 3.1 9.1 5.4 13.0 9.1 0.1 1.8 15.0 13.9 0.5 0.1 0.4 3.8 15.0 15.0 15.0 15.0 15.0 10.6 0.5 0.0 0.0 11.0 15.0
0.8 0.3 0.3 0.3 0.2 14.7 15.0 14.5 2.7 0.4 14.7 14.9 0.4 10.5 4.2 1.4 0.2 9.3 15.0 15.0 14.9 7.3 0.1 0.5 0.3 0.0 0.1 0.3 0.1 0.5 0.9 1.5 3.7 15.0 14.5 2.5 0.0 0.3
5.2 0.4 0.4 0.4 15.0 15.0 15.0 15.0 12.0 1.2 14.0 15.0 3.1 0.7 0.3 0.2 0.4 11.8 12.6 0.4 1.0 0.2 1.7 15.0 15.0 15.0 0.7 0.3 0.2 1.4 3.0 0.4 0.3 0.6 0.5 0.0 0.1 3.4
15.0 2.6 4.4 10.7 15.0 15.0 15.0 15.0 11.2 8.3 12.6 15.0 15.0 1.5 0.4 0.2 0.7 9.2 10.7 8.3 3.9 5.5 1.7 13.8 15.0 15.0 15.0 14.1 0.1 0.5 12.1 15.0 15.0 5.7 1.4 0.4 0.1 0.2
15.0 15.0 15.0 15.0 15.0 15.0 15.0 15.0 15.0 15.0 15.0 15.0 15.0 14.6 0.4 0.4 0.2 0.7 5.1 1.0 3.2 1.4 0.4 15.0 15.0 15.0 15.0 10.5 0.1 1.6 3.1 7.1 15.0 15.0 14.4 6.5 0.2 0.1
15.0 15.0 15.0 15.0 15.0 15.0 15.0 15.0 15.0 15.0 15.0 15.0 15.0 14.1 3.3 10.4 2.9 0.6 15.0 15.0 0.5 15.0 15.0 6.2 14.7 15.0 14.5 15.0 7.1 0.2 15.0 14.9 13.5 0.1 6.9 15.0 3.7 0.6

GFSNE_sfc_vis_030.txt.gz
Visibility
15.0 15.0 15.0 15.0 15.0 15.0 15.0 0.6 0.0 0.0 0.3 15.0 15.0 15.0 15.0 15.0 15.0 15.0 15.0 15.0 15.0 15.0 13.9 4.9 15.0 15.0 15.0 15.0 15.0 15.0 15.0 15.0 15.0 15.0 15.0 15.0 15.0 15.0
15.0 14.3 15.0 15.0 15.0 15.0 15.0 15.0 14.1 0.0 0.1 15.0 15.0 15.0 15.0 15.0 15.0 15.0 15.0 15.0 15.0 15.0 15.0 13.2 4.1 10.3 15.0 15.0 15.0 15.0 15.0 15.0 15.0 15.0 15.0 15.0 15.0 15.0
15.0 15.0 15.0 15.0 15.0 15.0 15.0 15.0 15.0 15.0 10.8 15.0 15.0 15.0 15.0 15.0 15.0 15.0 15.0 15.0 15.0 15.0 15.0 15.0 15.0 11.2 5.9 15.0 15.0 15.0 15.0 15.0 15.0 15.0 15.0 15.0 15.0 15.0
15.0 15.0 15.0 15.0 15.0 15.0 15.0 15.0 15.0 15.0 15.0 15.0 15.0 15.0 15.0 15.0 15.0 15.0 15.0 15.0 15.0 15.0 15.0 15.0 15.0 15.0 15.0 15.0 15.0 15.0 15.0 15.0 15.0 15.0 15.0 15.0 15.0 15.0
15.0 15.0 15.0 15.0 15.0 15.0 15.0 15.0 15.0 15.0 15.0 15.0 15.0 15.0 15.0 15.0 15.0 15.0 15.0 15.0 15.0 15.0 15.0 15.0 15.0 15.0 15.0 15.0 15.0 15.0 15.0 15.0 15.0 15.0 15.0 15.0 15.0 15.0
15.0 15.0 15.0 15.0 15.0 15.0 15.0 15.0 15.0 15.0 15.0 15.0 15.0 15.0 15.0 15.0 15.0 15.0 15.0 15.0 15.0 15.0 15.0 15.0 15.0 15.0 15.0 15.0 15.0 15.0 15.0 15.0 15.0 15.0 15.0 15.0 15.0 15.0
15.0 15.0 15.0 15.0 15.0 15.0 14.2 15.0 15.0 15.0 15.0 15.0 15.0 15.0 15.0 15.0 15.0 15.0 15.0 15.0 15.0 15.0 15.0 15.0 15.0 15.0 15.0 15.0 15.0 15.0 15.0 15.0 15.0 15.0 15.0 15.0 15.0 15.0
15.0 15.0 15.0 15.0 15.0 15.0 15.0 15.0 15.0 15.0 15.0 15.0 15.0 11.3 15.0 15.0 15.0 15.0 15.0 15.0 14.9 15.0 15.0 15.0 15.0 15.0 15.0 15.0 15.0 15.0 15.0 15.0 15.0 15.0 15.0 15.0 15.0 15.0
15.0 15.0 15.0 15.0 15.0 15.0 15.0 15.0 15.0 15.0 15.0 15.0 2.2 15.0 15.0 15.0 15.0 15.0 15.0 15.0 15.0 15.0 15.0 15.0 14.4 15.0 15.0 15.0 15.0 15.0 15.0 15.0 15.0 15.0 15.0 15.0 15.0 15.0
15.0 15.0 15.0 15.0 15.0 15.0 11.1 0.5 15.0 15.0 15.0 15.0 15.0 15.0 15.0 15.0 15.0 15.0 15.0 4.7 11.4 12.9 15.0 0.3 14.5 15.0 15.0 15.0 15.0 15.0 15.0 15.0 15.0 15.0 15.0 15.0 15.0 15.0
15.0 15.0 15.0 15.0 15.0 6.3 0.1 6.9 0.2 15.0 15.0 15.0 15.0 1.1 0.4 0.1 6.9 0.8 2.1 1.2 1.7 15.0 15.0 14.5 15.0 15.0 15.0 15.0 15.0 15.0 15.0 15.0 15.0 15.0 15.0 15.0 15.0 15.0
14.6 15.0 15.0 15.0 5.6 13.7 0.3 0.3 0.7 15.0 15.0 15.0 15.0 15.0 15.0 15.0 15.0 15.0 15.0 15.0 14.9 1.0 15.0 13.8 15.0 15.0 14.2 14.8 14.9 15.0 15.0 15.0 15.0 15.0 15.0 15.0 15.0 15.0
15.0 14.9 15.0 11.7 0.3 3.3 5.8 0.4 0.1 9.7 2.5 0.3 0.3 5.1 6.1 0.9 0.3 0.1 0.2 0.1 0.2 0.8 15.0 15.0 9.2 6.9 3.7 15.0 15.0 15.0 15.0 15.0 15.0 15.0 15.0 15.0 15.0 15.0
2.8 7.4 0.6 3.2 7.4 0.6 0.2 0.1 2.7 2.1 0.2 0.2 0.1 0.1 0.1 0.1 0.1 0.1 0.1 0.0 0.1 6.4 15.0 5.9 0.2 15.0 2.7 1.5 6.3 15.0 15.0 15.0 8.9 15.0 15.0 15.0 12.5 15.0
1.8 0.2 9.8 15.0 2.5 0.4 0.4 0.1 0.2 0.4 0.3 0.3 0.2 0.3 0.2 0.2 1.4 4.3 10.4 13.9 9.9 0.0 1.7 14.0 0.2 2.6 0.3 0.2 1.1 6.8 15.0 12.5 0.1 0.1 1.0 1.2 15.0 10.8
15.0 15.0 15.0 15.0 6.1 0.6 0.7 0.2 0.1 0.1 0.1 0.1 0.2 0.6 9.2 11.2 0.5 0.1 0.2 0.5 9.0 15.0 15.0 0.5 0.3 0.4 2.6 6.9 0.7 0.5 9.4 0.2 2.6 3.5 15.0 0.3 6.1 11.6
15.0 12.4 15.0 15.0 15.0 15.0 15.0 0.7 0.2 0.3 0.3 0.2 0.2 0.4 0.6 0.2 0.3 0.5 0.9 0.5 0.1 1.6 3.6 15.0 7.3 11.4 1.7 2.1 0.8 13.3 2.4 0.3 15.0 15.0 7.1 15.0 15.0 15.0
9.0 3.9 4.6 1.5 5.5 5.2 6.6 8.4 14.8 2.8 4.8 0.5 0.2 0.2 0.2 0.2 0.3 9.1 7.7 5.3 0.2 0.4 9.6 15.0 5.2 1.0 0.1 0.9 0.2 1.8 0.2 5.1 8.1 6.0 0.1 0.2 11.5 15.0
4.1 3.3 1.0 1.7 2.8 3.3 3.8 1.7 0.7 4.1 14.9 6.7 0.5 0.2 0.2 0.3 0.3 1.3 8.2 3.0 0.4 0.3 6.8 6.0 13.4 5.3 1.6 2.3 12.0 14.5 0.6 0.4 0.8 6.0 6.7 0.9 5.0 15.0
4.1 4.1 0.9 1.0 10.3 2.1 4.4 1.8 2.8 14.2 10.2 7.7 1.7 0.5 0.3 0.2 0.7 0.9 1.1 0.8 3.7 4.3 5.7 6.4 5.6 6.2 4.8 2.4 1.4 10.5 15.0 4.6 0.6 1.1 3.5 2.6 10.2 14.4
4.1 4.1 3.5 1.5 7.9 8.4 2.7 4.3 4.0 14.7 15.0 4.6 2.7 2.4 1.5 0.3 0.6 1.5 1.4 1.2 4.5 15.0 14.5 14.9 15.0 15.0 15.0 6.1 2.2 7.5 4.3 15.0 4.2 0.1 3.8 0.3 1.9 1.2
4.1 4.1 4.1 4.1 4.1 4.1 2.5 4.0 3.9 4.6 15.0 15.0 4.6 3.5 3.0 0.9 0.7 1.1 0.8 3.9 5.7 4.0 4.7 15.0 15.0 15.0 15.0 15.0 4.1 1.0 1.1 4.1 11.9 15.0 15.0 13.5 3.6 0.9
4.1 5.5 4.1 4.1 4.1 4.1 4.1 4.1 4.3 4.2 10.3 9.7 4.1 3.3 2.9 1.9 2.3 4.2 3.5 4.1 4.7 7.2 15.0 15.0 15.0 10.3 0.3 2.4 1.4 0.5 14.6 4.2 0.5 3.7 0.8 15.0 15.0 15.0